Regional Weather Roundup
Issued by NWS

Home | Current Version | Previous Version | Graphics & Text | Print | Product List | Glossary Off
Versions: 1 2 3 4 5 6 7 8 9 10 11 12 13 14 15 16 17 18 19 20 21 22 23 24 25 26 27 28 29 30 31 32 33 34 35 36 37 38 39 40 41 42 43 44 45 46 47 48 49 50

443
ASUS43 KDMX 200206
RWRIA

WEATHER ROUNDUP FOR IOWA
NATIONAL WEATHER SERVICE DES MOINES IA
900 PM CDT TUE SEP 19 2017

NOTE: "FAIR" INDICATES FEW OR NO CLOUDS BELOW 12,000 FEET WITH NO
SIGNIFICANT WEATHER AND/OR OBSTRUCTIONS TO VISIBILITY.

* - THESE STATIONS ARE NOT NWS STATIONS...THUS NOT UNDER NWS
QUALITY CONTROL.  THEY ALSO DO NOT REPORT WEATHER SUCH
AS PRECIPITATION OR FOG.

IAZ001>003-012>014-020>022-031>034-043>046-200300-
   NORTHWEST IOWA

CITY           SKY/WX    TMP DP  RH WIND       PRES   REMARKS
CARROLL *      CLOUDY    75  66  73 SE12G23   29.67R
CHEROKEE *     PTCLDY    75  68  78 SE14G23   29.61S
DENISON *      CLOUDY    77  66  69 SE18G26   29.64R
LE MARS *      PTCLDY    77  68  73 SE17G28   29.55S
ORANGE CITY *  PTCLDY    77  70  78 SE13G24   29.57F
SHELDON *      PTCLDY    75  68  78 SE20G26   29.57F
SIOUX CITY     MOCLDY    78  69  73 SE15      29.55R HX  80
SPENCER        PTCLDY    75  67  76 SE18G24   29.63R
STORM LAKE *   CLOUDY    73  66  78 SE14G23   29.65R
$$

IAZ055>058-069>071-079>083-090>094-200300-
   SOUTHWEST IOWA

CITY           SKY/WX    TMP DP  RH WIND       PRES   REMARKS
ATLANTIC *     CLOUDY    79  68  69 S14G22    29.66R HX  81
AUDUBON *      CLOUDY    75  68  78 SE9       29.68R
CLARINDA *     CLEAR     79  70  73 S13G22    29.68S HX  81
COUNCIL BLFS * PTCLDY    79  72  78 SE22G29   29.61R HX  82
CRESTON *      CLEAR     75 -35   1 SE14G22   29.72R
HARLAN  *      CLOUDY    77  68  73 SE15G22   29.67R
LAMONI         CLEAR     78  66  66 SE12G21   29.73S HX  80
RED OAK *      CLOUDY    79  70  73 SE17      29.65R HX  81
SHENANDOAH *   CLEAR     79  70  73 SE13G21   29.64R HX  81
$$

IAZ047>049-059>061-072>074-084-200300-
   CENTRAL IOWA

CITY           SKY/WX    TMP DP  RH WIND       PRES   REMARKS
AMES           CLEAR     74  68  81 SE12      29.72R
ANKENY *       CLEAR     75  68  78 SE13      29.72S
BOONE *        CLEAR     75  68  78 SE14G22   29.71R
CHARITON *     CLEAR     75  68  78 SE12      29.74S
DES MOINES     PTCLDY    78  67  68 SE17      29.71R HX  80
GRINNELL*      CLEAR     72  64  77 SE9       29.78S
KNOXVILLE *    CLEAR     77  66  69 SE12G18   29.74R
MARSHALLTOWN   CLEAR     73  65  75 SE15G22   29.75S
NEWTON *       CLEAR     73  66  78 SE14      29.75S
PELLA *        CLEAR     75  65  71 SE8       29.76S
PERRY *          N/A     76  70  81 SE14G20   29.69R
$$

IAZ004>006-015-016-023>025-035-036-200300-
   NORTH CENTRAL IOWA

CITY           SKY/WX    TMP DP  RH WIND       PRES   REMARKS
ALGONA *       CLOUDY    73  68  83 SE16G23   29.68R
CLARION *      CLOUDY    73  68  83 SE15G28   29.70R
ESTHERVILLE    PTCLDY    73  67  81 SE20G30   29.65R
FORT DODGE *   CLOUDY    76  67  73 SE13G23   29.69R
MASON CITY     CLOUDY    72  63  73 SE15      29.74S
FOREST CITY *    N/A     72  63  73 SE20G25   29.71R
IOWA FALLS *     N/A     72  65  79 SE13      29.75S
$$

IAZ007>011-017>019-026>030-037>042-050>054-066-200300-
   NORTHEAST IOWA

CITY           SKY/WX    TMP DP  RH WIND       PRES   REMARKS
CEDAR RAPIDS   CLEAR     71  65  81 SE12      29.81R
CHARLES CITY * CLEAR     70  64  83 SE12      29.77S
CLINTON *      CLEAR     70  65  84 SE13      29.86F
DECORAH *      PTCLDY    70  63  78 SE10G17   29.80S
DUBUQUE        CLEAR     68  63  84 S9        29.87R
MONTICELLO *   CLEAR     68  64  88 SE9       29.84R
OELWEIN *      CLEAR     70  66  88 SE12G18   29.81R
WATERLOO       CLEAR     72  63  73 SE13      29.77R
$$

IAZ064-065-067-068-078-200300-
   EAST CENTRAL IOWA

CITY           SKY/WX    TMP DP  RH WIND       PRES   REMARKS
DAVENPORT      CLEAR     71  64  78 SE9       29.88R
IOWA CITY      CLEAR     72  64  76 SE8       29.83R
MT. PLEASANT * CLEAR     72  65  78 SE8       29.84R
MUSCATINE *    CLEAR     73  64  73 SE7       29.84R
QUAD CITIES    CLEAR     72  64  76 SE8       29.85R
$$

IAZ062-063-075>077-085>089-095>099-200300-
   SOUTHEAST IOWA

CITY           SKY/WX    TMP DP  RH WIND       PRES   REMARKS
BURLINGTON     CLEAR     73  67  81 SE7       29.84R
FAIRFIELD *    CLEAR     75  66  73 SE13      29.81R
FORT MADISON * CLEAR     73  66  78 SE8       29.85R
KEOKUK *       CLEAR     75  66  73 SE8       29.83R
OSKALOOSA *      N/A     73  65  77 SE9       29.79S
OTTUMWA        CLEAR     77  66  68 SE14      29.78S
WASHINGTON *   CLEAR     72  66  83 SE8       29.83R
$$

ABBREVIATIONS USED IN REMARKS
   TC - TEMPERATURES IN CELSIUS
  WCI - WIND CHILL INDEX
   HX - HEAT INDEX
  VSB - VISIBILITY
$$





USA.gov is the U.S. government's official web portal to all federal, state and local government web resources and services.